Location: Starlight Observatory
(38.4029°N, 85.8936°W)
Time: 11:42:15
(UTC-04:00)

Iridium 84 - Visible Passes

Search period start: 30 June 2016 00:00
Search period end: 10 July 2016 00:00
Orbit: 776 x 779 km, 86.4° (Epoch: 30 June)

Date Brightness Start Highest point End Pass type
(mag) Time Alt. Az. Time Alt. Az. Time Alt. Az.
30 Jun 5.6 03:49:26 10° N 03:54:40 72° E 03:56:58 34° SSE visible
30 Jun 7.5 05:32:52 10° WNW 05:34:39 12° WNW 05:36:26 10° W visible
01 Jul 6.7 03:16:12 10° NNE 03:21:03 37° E 03:23:13 26° SE visible
01 Jul 6.9 04:57:30 10° NNW 05:01:28 22° W 05:03:39 17° WSW visible
02 Jul 7.5 02:43:27 10° NNE 02:47:18 21° ENE 02:49:29 16° ESE visible
02 Jul 6.1 04:23:18 10° NNW 04:28:11 41° W 04:29:56 31° SW visible
03 Jul 8.1 02:12:14 10° ENE 02:13:25 11° ENE 02:14:36 10° E visible
03 Jul 5.4 03:49:31 10° N 03:54:45 79° W 03:56:12 48° SSW visible
04 Jul 6.0 03:16:05 10° N 03:21:13 55° E 03:22:30 43° SE visible
04 Jul 7.3 04:58:25 10° NW 05:01:22 15° W 05:02:57 14° W visible
05 Jul 6.9 02:43:00 10° NNE 02:47:32 29° E 02:48:49 26° ESE visible
05 Jul 6.5 04:23:44 10° NNW 04:28:09 28° W 04:29:16 26° WSW visible
06 Jul 7.7 02:10:33 10° NE 02:13:44 16° ENE 02:15:09 15° E visible
06 Jul 5.7 03:49:43 10° NNW 03:54:48 53° W 03:55:36 48° WSW visible
07 Jul 5.4 03:16:05 10° N 03:21:19 82° E 03:21:55 69° SSE visible
07 Jul 7.6 05:00:57 10° WNW 05:01:14 10° WNW 05:01:29 10° W visible
08 Jul 6.3 02:42:46 10° NNE 02:47:44 43° E 02:48:16 41° E visible
08 Jul 7.0 04:24:24 10° NW 04:28:04 20° W 04:28:44 19° W visible
09 Jul 7.2 02:09:53 10° NNE 02:14:01 23° ENE 02:14:38 23° E visible
09 Jul 6.2 03:50:03 10° NNW 03:54:48 36° W 03:55:05 36° W visible
